Time,TemperatureF,DewpointF,PressureIn,WindDirection,WindDirectionDegrees,WindSpeedMPH,WindSpeedGustMPH,Humidity,HourlyPrecipIn,Conditions,Clouds,dailyrainin,SolarRadiationWatts/m^2,SoftwareType,DateUTC
2013-06-26 00:13:00,67.4,65.0,29.71,South,169,2.0,5.0,93,0.00,,,0.00,0,weatherlink.com 1.10,2013-06-26 04:13:00,
2013-06-26 00:28:00,67.4,66.0,29.70,South,190,2.0,3.0,94,0.00,,,0.00,0,weatherlink.com 1.10,2013-06-26 04:28:00,
2013-06-26 00:43:00,67.3,66.0,29.70,South,175,1.0,3.0,94,0.00,,,0.00,0,weatherlink.com 1.10,2013-06-26 04:43:00,
2013-06-26 00:58:00,67.3,66.0,29.71,SE,140,1.0,4.0,94,0.00,,,0.00,0,weatherlink.com 1.10,2013-06-26 04:58:00,
2013-06-26 01:13:00,67.3,66.0,29.71,SW,221,0.0,2.0,94,0.00,,,0.00,0,weatherlink.com 1.10,2013-06-26 05:13:00,
2013-06-26 01:28:00,67.3,66.0,29.71,SE,124,2.0,4.0,94,0.00,,,0.00,0,weatherlink.com 1.10,2013-06-26 05:28:00,
2013-06-26 01:43:00,67.2,65.0,29.71,SE,146,2.0,4.0,93,0.00,,,0.00,0,weatherlink.com 1.10,2013-06-26 05:43:00,
2013-06-26 01:58:00,67.2,65.0,29.71,SSE,155,1.0,3.0,93,0.00,,,0.00,0,weatherlink.com 1.10,2013-06-26 05:58:00,
2013-06-26 02:13:00,67.1,65.0,29.71,SE,142,3.0,4.0,93,0.00,,,0.00,0,weatherlink.com 1.10,2013-06-26 06:13:00,
2013-06-26 02:28:00,67.0,65.0,29.71,SSE,150,1.0,4.0,94,0.00,,,0.00,0,weatherlink.com 1.10,2013-06-26 06:28:00,
2013-06-26 02:43:00,67.0,65.0,29.71,SSE,156,2.0,3.0,94,0.00,,,0.00,0,weatherlink.com 1.10,2013-06-26 06:43:00,
2013-06-26 02:58:00,67.1,65.0,29.71,SSE,157,2.0,3.0,93,0.00,,,0.00,0,weatherlink.com 1.10,2013-06-26 06:58:00,
2013-06-26 03:13:00,67.1,65.0,29.71,SE,126,3.0,3.0,93,0.00,,,0.00,0,weatherlink.com 1.10,2013-06-26 07:13:00,
2013-06-26 03:28:00,67.0,65.0,29.71,SSE,158,1.0,2.0,93,0.00,,,0.00,0,weatherlink.com 1.10,2013-06-26 07:28:00,
2013-06-26 03:43:00,67.0,65.0,29.70,SE,136,1.0,3.0,93,0.00,,,0.00,0,weatherlink.com 1.10,2013-06-26 07:43:00,
2013-06-26 03:58:00,66.8,65.0,29.70,SSE,150,2.0,4.0,93,0.00,,,0.00,0,weatherlink.com 1.10,2013-06-26 07:58:00,
2013-06-26 04:13:00,67.1,65.0,29.70,SE,134,4.0,6.0,93,0.00,,,0.00,0,weatherlink.com 1.10,2013-06-26 08:13:00,
2013-06-26 04:28:00,67.5,65.0,29.70,South,175,2.0,5.0,92,0.00,,,0.00,0,weatherlink.com 1.10,2013-06-26 08:28:00,
2013-06-26 04:43:00,67.5,66.0,29.69,SSE,164,1.0,5.0,93,0.00,,,0.00,0,weatherlink.com 1.10,2013-06-26 08:43:00,
2013-06-26 04:58:00,67.5,66.0,29.69,South,175,2.0,6.0,93,0.00,,,0.00,0,weatherlink.com 1.10,2013-06-26 08:58:00,
2013-06-26 05:13:00,67.5,66.0,29.69,SE,133,1.0,3.0,94,0.00,,,0.00,0,weatherlink.com 1.10,2013-06-26 09:13:00,
2013-06-26 05:29:00,67.6,66.0,29.68,South,175,1.0,4.0,94,0.00,,,0.00,0,weatherlink.com 1.10,2013-06-26 09:29:00,
2013-06-26 05:44:00,67.8,66.0,29.69,SSE,157,1.0,5.0,94,0.00,,,0.00,7,weatherlink.com 1.10,2013-06-26 09:44:00,
2013-06-26 05:59:00,68.1,66.0,29.70,SSE,165,2.0,5.0,94,0.00,,,0.00,7,weatherlink.com 1.10,2013-06-26 09:59:00,
2013-06-26 06:14:00,68.2,67.0,29.71,SW,236,1.0,4.0,94,0.00,,,0.00,7,weatherlink.com 1.10,2013-06-26 10:14:00,
2013-06-26 06:29:00,68.4,67.0,29.71,SW,217,1.0,4.0,94,0.00,,,0.00,16,weatherlink.com 1.10,2013-06-26 10:29:00,
2013-06-26 06:44:00,68.6,67.0,29.71,SSW,200,2.0,6.0,94,0.00,,,0.00,25,weatherlink.com 1.10,2013-06-26 10:44:00,
2013-06-26 06:59:00,68.9,68.0,29.72,SSW,196,2.0,8.0,95,0.00,,,0.00,30,weatherlink.com 1.10,2013-06-26 10:59:00,
2013-06-26 07:14:00,69.0,68.0,29.72,South,175,7.0,8.0,95,0.00,,,0.00,46,weatherlink.com 1.10,2013-06-26 11:14:00,
2013-06-26 07:29:00,69.2,68.0,29.72,SSW,211,1.0,5.0,95,0.00,,,0.00,33,weatherlink.com 1.10,2013-06-26 11:29:00,
2013-06-26 07:44:00,69.3,68.0,29.73,SE,145,2.0,6.0,94,0.00,,,0.00,42,weatherlink.com 1.10,2013-06-26 11:44:00,
2013-06-26 07:59:00,69.5,68.0,29.73,SSW,206,2.0,6.0,94,0.00,,,0.00,49,weatherlink.com 1.10,2013-06-26 11:59:00,
2013-06-26 08:14:00,69.6,68.0,29.73,SW,227,3.0,5.0,94,0.00,,,0.00,44,weatherlink.com 1.10,2013-06-26 12:14:00,
2013-06-26 08:29:00,69.6,68.0,29.73,NW,306,2.0,5.0,94,0.00,,,0.00,62,weatherlink.com 1.10,2013-06-26 12:29:00,
2013-06-26 08:44:00,69.9,68.0,29.73,West,273,2.0,6.0,93,0.00,,,0.00,79,weatherlink.com 1.10,2013-06-26 12:44:00,
2013-06-26 08:59:00,69.9,68.0,29.73,SW,220,3.0,7.0,93,0.00,,,0.00,91,weatherlink.com 1.10,2013-06-26 12:59:00,
2013-06-26 09:14:00,70.0,68.0,29.73,North,350,2.0,7.0,93,0.00,,,0.00,93,weatherlink.com 1.10,2013-06-26 13:14:00,
2013-06-26 09:29:00,70.3,68.0,29.73,WSW,258,3.0,7.0,92,0.00,,,0.00,127,weatherlink.com 1.10,2013-06-26 13:29:00,
2013-06-26 09:44:00,70.4,67.0,29.73,SSW,197,2.0,8.0,90,0.00,,,0.00,120,weatherlink.com 1.10,2013-06-26 13:44:00,
2013-06-26 09:59:00,70.6,68.0,29.73,West,275,3.0,8.0,90,0.00,,,0.00,137,weatherlink.com 1.10,2013-06-26 13:59:00,
2013-06-26 10:14:00,70.8,68.0,29.73,NNE,20,2.0,11.0,90,0.00,,,0.00,123,weatherlink.com 1.10,2013-06-26 14:14:00,
2013-06-26 10:29:00,71.2,68.0,29.73,West,264,3.0,6.0,88,0.00,,,0.00,130,weatherlink.com 1.10,2013-06-26 14:29:00,
2013-06-26 10:44:00,71.5,68.0,29.73,SSE,163,3.0,5.0,88,0.00,,,0.00,230,weatherlink.com 1.10,2013-06-26 14:44:00,
2013-06-26 10:59:00,72.8,68.0,29.73,WSW,238,4.0,8.0,86,0.00,,,0.00,341,weatherlink.com 1.10,2013-06-26 14:59:00,
2013-06-26 11:14:00,74.3,69.0,29.73,SW,214,3.0,11.0,83,0.00,,,0.00,592,weatherlink.com 1.10,2013-06-26 15:14:00,
2013-06-26 11:29:00,73.7,69.0,29.73,SW,216,2.0,10.0,84,0.00,,,0.00,448,weatherlink.com 1.10,2013-06-26 15:29:00,
2013-06-26 11:44:00,74.9,69.0,29.72,NW,321,2.0,12.0,81,0.00,,,0.00,487,weatherlink.com 1.10,2013-06-26 15:44:00,
2013-06-26 11:59:00,75.3,69.0,29.72,ESE,121,2.0,9.0,81,0.00,,,0.00,332,weatherlink.com 1.10,2013-06-26 15:59:00,
2013-06-26 12:14:00,75.7,69.0,29.72,South,170,2.0,6.0,80,0.00,,,0.00,350,weatherlink.com 1.10,2013-06-26 16:14:00,
2013-06-26 12:29:00,76.0,69.0,29.73,WSW,251,4.0,11.0,80,0.00,,,0.00,425,weatherlink.com 1.10,2013-06-26 16:29:00,
2013-06-26 12:44:00,76.1,70.0,29.72,SW,222,5.0,10.0,80,0.00,,,0.00,313,weatherlink.com 1.10,2013-06-26 16:44:00,
2013-06-26 12:59:00,78.4,70.0,29.72,SW,229,13.0,13.0,74,0.00,,,0.00,1041,weatherlink.com 1.10,2013-06-26 16:59:00,
2013-06-26 13:14:00,78.7,70.0,29.72,East,86,10.0,12.0,74,0.00,,,0.00,408,weatherlink.com 1.10,2013-06-26 17:14:00,
2013-06-26 13:29:00,79.0,70.0,29.72,South,184,3.0,10.0,75,0.00,,,0.00,320,weatherlink.com 1.10,2013-06-26 17:29:00,
2013-06-26 13:44:00,78.7,70.0,29.72,West,268,4.0,13.0,74,0.00,,,0.00,369,weatherlink.com 1.10,2013-06-26 17:44:00,
2013-06-26 14:00:00,77.3,68.0,29.72,WSW,241,10.0,14.0,74,0.00,,,0.00,329,weatherlink.com 1.10,2013-06-26 18:00:00,
2013-06-26 14:15:00,77.9,70.0,29.72,West,265,3.0,8.0,76,0.00,,,0.00,373,weatherlink.com 1.10,2013-06-26 18:15:00,
2013-06-26 14:30:00,79.1,71.0,29.72,WSW,241,2.0,7.0,75,0.00,,,0.00,1011,weatherlink.com 1.10,2013-06-26 18:30:00,
2013-06-26 14:45:00,80.0,71.0,29.71,NE,56,2.0,9.0,73,0.00,,,0.00,404,weatherlink.com 1.10,2013-06-26 18:45:00,
2013-06-26 15:00:00,79.4,71.0,29.72,West,267,5.0,10.0,75,0.00,,,0.00,585,weatherlink.com 1.10,2013-06-26 19:00:00,
2013-06-26 15:15:00,80.0,71.0,29.72,West,269,3.0,9.0,74,0.00,,,0.00,450,weatherlink.com 1.10,2013-06-26 19:15:00,
2013-06-26 15:30:00,80.1,70.0,29.72,South,182,5.0,7.0,72,0.00,,,0.00,334,weatherlink.com 1.10,2013-06-26 19:30:00,
2013-06-26 15:45:00,81.5,70.0,29.71,SW,227,2.0,7.0,69,0.00,,,0.00,508,weatherlink.com 1.10,2013-06-26 19:45:00,
2013-06-26 16:00:00,82.3,70.0,29.71,SW,221,4.0,8.0,67,0.00,,,0.00,819,weatherlink.com 1.10,2013-06-26 20:00:00,
2013-06-26 16:15:00,81.4,71.0,29.70,SW,229,1.0,9.0,70,0.00,,,0.00,308,weatherlink.com 1.10,2013-06-26 20:15:00,
2013-06-26 16:30:00,81.2,71.0,29.70,South,178,2.0,7.0,71,0.00,,,0.00,107,weatherlink.com 1.10,2013-06-26 20:30:00,
2013-06-26 16:45:00,79.3,71.0,29.71,WSW,238,3.0,6.0,76,0.00,,,0.00,81,weatherlink.com 1.10,2013-06-26 20:45:00,
2013-06-26 17:00:00,78.0,71.0,29.71,SSE,155,2.0,7.0,78,0.00,,,0.00,113,weatherlink.com 1.10,2013-06-26 21:00:00,
2013-06-26 17:15:00,77.5,71.0,29.71,West,271,2.0,9.0,80,0.00,,,0.00,148,weatherlink.com 1.10,2013-06-26 21:15:00,
2013-06-26 17:30:00,77.4,70.0,29.72,SSW,208,2.0,12.0,79,0.00,,,0.00,316,weatherlink.com 1.10,2013-06-26 21:30:00,
2013-06-26 17:45:00,78.6,70.0,29.71,WSW,248,15.0,15.0,76,0.00,,,0.00,297,weatherlink.com 1.10,2013-06-26 21:45:00,
2013-06-26 18:00:00,77.1,70.0,29.71,SW,227,4.0,11.0,78,0.00,,,0.00,95,weatherlink.com 1.10,2013-06-26 22:00:00,
2013-06-26 18:15:00,76.2,69.0,29.71,WNW,295,2.0,10.0,79,0.00,,,0.00,113,weatherlink.com 1.10,2013-06-26 22:15:00,
2013-06-26 18:30:00,76.0,69.0,29.71,SW,227,3.0,11.0,80,0.00,,,0.00,206,weatherlink.com 1.10,2013-06-26 22:30:00,
2013-06-26 18:45:00,77.1,70.0,29.72,WSW,238,4.0,9.0,78,0.00,,,0.00,274,weatherlink.com 1.10,2013-06-26 22:45:00,
2013-06-26 19:00:00,77.2,70.0,29.71,SW,234,1.0,7.0,77,0.00,,,0.00,60,weatherlink.com 1.10,2013-06-26 23:00:00,
2013-06-26 19:15:00,75.9,69.0,29.72,SW,236,3.0,5.0,79,0.00,,,0.00,51,weatherlink.com 1.10,2013-06-26 23:15:00,
2013-06-26 19:30:00,75.5,69.0,29.71,SSE,167,2.0,6.0,79,0.00,,,0.00,47,weatherlink.com 1.10,2013-06-26 23:30:00,
2013-06-26 19:45:00,75.5,69.0,29.71,ESE,110,2.0,5.0,79,0.00,,,0.00,84,weatherlink.com 1.10,2013-06-26 23:45:00,
2013-06-26 20:00:00,75.6,68.0,29.71,ESE,106,1.0,4.0,78,0.00,,,0.00,33,weatherlink.com 1.10,2013-06-27 00:00:00,
2013-06-26 20:15:00,75.1,69.0,29.72,SE,136,1.0,3.0,80,0.00,,,0.00,19,weatherlink.com 1.10,2013-06-27 00:15:00,
2013-06-26 20:30:00,74.5,68.0,29.71,SSE,150,2.0,3.0,81,0.00,,,0.00,11,weatherlink.com 1.10,2013-06-27 00:30:00,
2013-06-26 20:45:00,73.7,68.0,29.71,SE,130,1.0,2.0,83,0.00,,,0.00,0,weatherlink.com 1.10,2013-06-27 00:45:00,
2013-06-26 21:00:00,73.2,68.0,29.71,West,277,2.0,3.0,84,0.00,,,0.00,0,weatherlink.com 1.10,2013-06-27 01:00:00,
2013-06-26 21:15:00,73.1,68.0,29.71,East,94,1.0,4.0,84,0.00,,,0.00,0,weatherlink.com 1.10,2013-06-27 01:15:00,
2013-06-26 21:30:00,72.7,68.0,29.71,South,185,1.0,2.0,85,0.00,,,0.00,0,weatherlink.com 1.10,2013-06-27 01:30:00,
2013-06-26 21:45:00,72.2,68.0,29.71,SSE,162,0.0,3.0,86,0.00,,,0.00,0,weatherlink.com 1.10,2013-06-27 01:45:00,
2013-06-26 22:00:00,71.5,68.0,29.72,SE,128,1.0,5.0,87,0.00,,,0.00,0,weatherlink.com 1.10,2013-06-27 02:00:00,
2013-06-26 22:15:00,71.3,67.0,29.72,SE,136,2.0,3.0,87,0.00,,,0.00,0,weatherlink.com 1.10,2013-06-27 02:15:00,
2013-06-26 22:30:00,70.7,67.0,29.72,SE,125,2.0,4.0,88,0.00,,,0.00,0,weatherlink.com 1.10,2013-06-27 02:30:00,
2013-06-26 22:45:00,70.7,67.0,29.71,SE,137,3.0,5.0,88,0.00,,,0.00,0,weatherlink.com 1.10,2013-06-27 02:45:00,
2013-06-26 23:00:00,70.4,67.0,29.72,SSW,213,0.0,3.0,88,0.00,,,0.00,0,weatherlink.com 1.10,2013-06-27 03:00:00,
2013-06-26 23:15:00,70.2,67.0,29.73,SE,133,0.0,4.0,88,0.00,,,0.00,0,weatherlink.com 1.10,2013-06-27 03:15:00,
2013-06-26 23:30:00,70.1,67.0,29.73,SSE,158,1.0,4.0,88,0.00,,,0.00,0,weatherlink.com 1.10,2013-06-27 03:30:00,
2013-06-26 23:45:00,70.2,67.0,29.73,SSW,194,3.0,6.0,88,0.00,,,0.00,0,weatherlink.com 1.10,2013-06-27 03:45:00,